Starlink 33683

operational
NORAD ID: 63573 Int'l Des: 2025-076 Owner: SPXS Country: US Constellation: starlink
LEOCIRCULAR

About Starlink 33683

Description loading...

Live Position

Loading 3D Globe...

Upcoming Passes

Altitude History

Altitude vs Time

uPlot chart will show altitude changes over time

Two-Line Element Set

1 63573U 25076E 25258.30313455 .00041150 00000-0 14947-2 0 9998
2 63573 43.0029 232.5031 0001069 275.3085 84.7645 15.27620694 25009
Epoch: Sep 15, 2025 • Age: 15 hours

Current Status

Altitude 490.1 km
Velocity 7.62 km/s
Sub-Earth Point -29.40°S, 115.03°E
Launch Date Apr 14, 2025
Age 0.4 years
Type internet

Technical Details

Classification Payload
Mass 575.00 kg
Dry Mass 530.00 kg
Total Mass 575.00 kg
Length 0.30 m
Diameter 4.10 m
Span 29.00 m
Shape Box + pan
Manufacturer SPXS
Bus Type Starlink V2MO
Phase Status In Orbit
Owner/State SPXS/US

Large Constellations

Loading constellations...